Location: *
(34.6780°N, 135.8310°E)
Time: 19:12:57
(UTC+00:00)

Cosmos 1726 - Pass Details

Date: 18 October 2019
Orbit: 483 x 500 km, 82.5° (Epoch: 18 November)

Event Time Altitude Azimuth Distance (km) Brightness Sun altitude
Rises 20:02:39 0° 359° (N) 2,557 5.7 -13.5°
Reaches altitude 10° 20:04:48 10° 4° (N) 1,674 4.8 -13.1°
Maximum altitude 20:08:22 51° 81° (E) 618 3.0 -12.4°
Drops below altitude 10° 20:11:56 10° 159° (SSE) 1,670 5.1 -11.6°
Sets 20:14:05 0° 164° (SSE) 2,549 6.0 -11.2°
